Погода в Лоуди

Китай     27°44′13″N   111°59′34″E
темп.,
°C
ветер,
м/с
пор.,
м/с
влажн.,
%
обл.,
%
осадки,
мм/ч
давл.,
гПа
погр.,
м
8 мая, сб
сб823:00+20з1195100 1.1 101212
02:00+20з1196100 2.6 101015
05:00+19з0195100 1.8 100911
08:00+21ююз129128 2.0 1011201
11:00+25зюз227168 0.0 1010897
14:00+28юз236294 0.1 10071297
17:00+28ю22657 0.1 1006865
20:00+24ююв118248 0.1 100811
9 мая, вс
вс923:00+22ююв11860 0.0 100811
02:00+21ююз00900 0.0 100711
05:00+21юз00930 0.0 100711
08:00+24ююз12830 0.0 1008266
11:00+28ююз23655 0.0 1008993
14:00+32ююз12519 0.0 10051720
17:00+31ююв235223 0.0 10031758
20:00+26юв23753 0.0 100440
10 мая, пн
пн1023:00+25юв1182100 0.0 100416
02:00+24юв1286100 0.0 100321
05:00+23ююв1190100 0.0 100316
08:00+26ююв2583100 0.0 1004329
11:00+29ю566796 0.0 10041037
14:00+32ююз575675 0.2 10011777
17:00+31ю59612 0.6 1000885
20:00+27ю397619 0.9 1000265
11 мая, вт
вт1123:00+25ю12831 0.1 100248
02:00+24св1187100 0.8 100113
05:00+23сз2993100 6.3 1003428
08:00+21сз2496100 12.8 1006257
11:00+24зсз1283100 3.9 1006538
14:00+25ссв238282 6.3 1005642
17:00+22св4791100 2.4 1005501
20:00+20ссв3894100 6.5 1007537
12 мая, ср
ср1223:00+20ссз1494100 1.9 1008330
02:00+20ссв0195100 2.7 100773
05:00+20юв1195100 0.5 100746
08:00+20в1194100 0.9 1008151
11:00+22юв1186100 0.1 1008479
14:00+25вюв1177100 0.1 1006803
17:00+24в2282100 0.1 1005451
20:00+22в019459 2.2 100614